Miscellaneous Local Product
Issued by NWS Hastings, NE

Home | Current Version | Previous Version | Graphics & Text | Print | Product List | Glossary On
Versions: 1 2 3 4 5 6 7 8 9 10 11 12 13 14 15 16 17 18 19 20 21 22 23 24 25 26 27 28 29 30 31 32 33 34 35 36 37 38 39 40 41 42 43 44 45 46 47 48 49 50
000
AXUS43 KGID 051702
MISGRI

GID CWA HOURLY WEATHER ROUNDUP
NATIONAL WEATHER SERVICE HASTINGS NE
1100 AM CST THU MAR 05 2015

NOTE: "FAIR" INDICATES FEW OR NO CLOUDS BELOW 12,000 FEET WITH NO
SIGNIFICANT WEATHER AND/OR OBSTRUCTIONS TO VISIBILITY.

...SOUTH CENTRAL NEBRASKA...

CITY           SKY/WX    TMP DP  RH WIND       PRES   REMARKS
GRAND ISLAND     N/A    N/A N/A N/A MISG      30.45F
HASTINGS       SUNNY     22   3  44 S13       30.43F WCI  10
KEARNEY        SUNNY     23   7  50 S14G21    30.40F WCI  11
ORD            SUNNY     22   2  42 SW18      30.37F WCI   7

...NEBRASKA PANHANDLE...

CITY           SKY/WX    TMP DP  RH WIND       PRES   REMARKS
CHADRON        PTSUNNY   24  10  55 W9        30.21R WCI  14
ALLIANCE       MOSUNNY   37  11  34 W15       30.18S WCI  28
SCOTTSBLUFF    MOSUNNY   32  15  49 NW12      30.21F WCI  23
SIDNEY         SUNNY     37  14  38 W15       30.23R WCI  28

...WESTERN AND NORTH CENTRAL NEBRASKA...

CITY           SKY/WX    TMP DP  RH WIND       PRES   REMARKS
VALENTINE      SUNNY     25   6  44 SW7       30.23F WCI  17
BROKEN BOW     SUNNY     23   5  46 S16G25    30.33F WCI  10
IMPERIAL         N/A     35  10  35 SW13      30.28F WCI  26
NORTH PLATTE   SUNNY     27   9  46 SW10      30.30F WCI  17
MCCOOK         SUNNY     28  14  55 S6        30.35F WCI  22

...EASTERN NEBRASKA...

CITY           SKY/WX    TMP DP  RH WIND       PRES   REMARKS
NORFOLK        SUNNY     21   2  43 S13       30.44F WCI   9
SO SIOUX CITY  SUNNY     17   0  47 S5        30.52F WCI  10
TEKAMAH        MIX PCPN  18   1  47 S9        30.54F WCI   7
COLUMBUS       SUNNY     21   0  39 S8        30.49F WCI  12
OMAHA EPPLEY   SUNNY     16   0  49 S8        30.56F WCI   5
OFFUTT AFB     SUNNY     17   0  48 VRB3      30.55F
LINCOLN        SUNNY     19   1  45 VRB5      30.54F WCI  12
FALLS CITY     SUNNY     19  -2  39 NE3       30.58F

...NORTHERN KANSAS...

CITY           SKY/WX    TMP DP  RH WIND       PRES   REMARKS
GOODLAND       SUNNY     36  15  42 SW10      30.31S WCI  28
HILL CITY      SUNNY     28  11  48 S6        30.41F WCI  22
NORTON         SUNNY     28   9  43 S5        30.38S WCI  23
PHILLIPSBURG   SUNNY     25  10  54 SE7       30.44F WCI  17
SMITH CENTER   SUNNY     23   7  50 SE10G17   30.46F WCI  12
BELOIT         SUNNY     28   3  34 S10       30.49F WCI  19
HAYS           SUNNY     32  10  40 SW5       30.43F WCI  27
RUSSELL        FAIR      30  13  49 W7        30.43F WCI  23
CONCORDIA      SUNNY     25   5  42 SE9       30.50F WCI  15
SALINA         SUNNY     29   9  43 SE9       30.51F WCI  20
TOPEKA         SUNNY     23   1  38 MISG      30.59F



USA.gov is the U.S. government's official web portal to all federal, state and local government web resources and services.